Weather History for TIST - January, 2012

Change the Weather History Date:

Sunday, January 29, 2012

  Actual Average Record
Temperature  
Mean Temperature 77 °F 79 °F  
Max Temperature 81 °F 85 °F 90 °F (1993)
Min Temperature 72 °F 72 °F 63 °F (1996)
Degree Days  
Heating Degree Days 0 0  
Month to date heating degree days 0 0  
Since 1 July heating degree days 0 0  
Cooling Degree Days 12 14  
Month to date cooling degree days 263 406  
Year to date cooling degree days 263 406  
Growing Degree Days 27 (Base 50)    
Moisture  
Dew Point 68 °F    
Average Humidity 75    
Maximum Humidity 87    
Minimum Humidity 62    
Precipitation  
Precipitation 0.09 in 0.06 in 1.20 in (2001)
Month to date precipitation 1.92 2.26  
Year to date precipitation 1.92 2.26  
Snow  
Snow 0.00 in 0.00 in - ()
Month to date snowfall 0.0 0.0  
Since 1 July snowfall 0.0 0.0  
Snow Depth 0.00 in    
Sea Level Pressure  
Sea Level Pressure 30.08 in    
Wind  
Wind Speed 11 mph (NE)    
Max Wind Speed 24 mph    
Max Gust Speed 30 mph    
Visibility 9 miles    
Events Rain    
T = Trace of Precipitation, MM = Missing Value Source: NWS Daily Summary

Daily Weather History Graph

Daily Weather History Graph

Search for Another Location

Airport or City:

Trip Planner

Search our weather history database for the weather conditions in past years. The results will help you decide how hot, cold, wet, or windy it might be!

Date:

Astronomy

Jan. 29, 2012 Rise Set
Actual Time 6:53 AM AST 6:12 PM AST
Civil Twilight 6:31 AM AST 6:35 PM AST
Nautical Twilight 6:04 AM AST 7:01 PM AST
Astronomical Twilight 5:38 AM AST 7:27 PM AST
Moon 10:46 AM AST (1/29) 11:44 PM AST (1/29)
Length of Visible Light 12h 03m
Length of Day
11h 18m
Waxing Crescent, 36% of the Moon is Illuminated
Jan 29
Waxing Crescent
Jan 31
First Quarter
Feb 7
Full
Feb 14
Last Quarter
Feb 21
New

Hourly Weather History & Observations

Time (AST) Temp. Heat Index Dew Point Humidity Pressure Visibility Wind Dir Wind Speed Gust Speed Precip Events Conditions
12:53 AM 73.9 °F - 70.0 °F 87% 30.09 in 10.0 mi NE 11.5 mph - 0.00 in   Mostly Cloudy
1:53 AM 73.0 °F - 70.0 °F 90% 30.07 in 10.0 mi NE 9.2 mph - 0.03 in   Overcast
2:53 AM 73.9 °F - 68.0 °F 82% 30.05 in 10.0 mi NE 12.7 mph 19.6 mph 0.00 in   Scattered Clouds
3:53 AM 73.9 °F - 66.9 °F 79% 30.06 in 10.0 mi NNE 10.4 mph - N/A   Clear
4:53 AM 73.0 °F - 68.0 °F 84% 30.06 in 10.0 mi NNE 9.2 mph - N/A   Clear
5:53 AM 73.0 °F - 66.0 °F 79% 30.07 in 10.0 mi NNE 10.4 mph - N/A   Clear
6:53 AM 73.9 °F - 68.0 °F 82% 30.09 in 10.0 mi NNE 8.1 mph - N/A   Mostly Cloudy
7:53 AM 75.9 °F - 66.9 °F 74% 30.10 in 10.0 mi NE 12.7 mph - N/A   Clear
8:53 AM 78.1 °F - 66.0 °F 66% 30.12 in 10.0 mi NE 12.7 mph 19.6 mph N/A   Clear
9:53 AM 80.1 °F 82.3 °F 66.9 °F 64% 30.14 in 10.0 mi NE 15.0 mph 23.0 mph N/A   Clear
10:53 AM 81.0 °F 83.3 °F 66.9 °F 62% 30.14 in 10.0 mi NE 17.3 mph - N/A   Mostly Cloudy
11:53 AM 79.0 °F - 66.9 °F 66% 30.12 in 10.0 mi NE 17.3 mph 24.2 mph N/A   Overcast
12:53 PM 75.9 °F - 70.0 °F 82% 30.10 in 10.0 mi Variable 5.8 mph - 0.00 in Rain Light Rain
1:05 PM 73.4 °F - 71.6 °F 94% 30.10 in 1.8 mi East 13.8 mph - 0.04 in Rain Heavy Rain
1:16 PM 73.4 °F - 73.4 °F 100% 30.10 in 3.0 mi ENE 9.2 mph 18.4 mph 0.06 in Rain Light Rain
1:53 PM 75.0 °F - 73.0 °F 94% 30.09 in 10.0 mi ENE 23.0 mph 29.9 mph 0.06 in   Overcast
2:53 PM 75.9 °F - 66.9 °F 74% 30.06 in 10.0 mi NNE 5.8 mph - 0.00 in   Overcast
3:53 PM 80.1 °F 82.3 °F 66.9 °F 64% 30.04 in 10.0 mi ENE 13.8 mph 21.9 mph N/A   Clear
4:53 PM 78.1 °F - 68.0 °F 71% 30.04 in 10.0 mi NE 9.2 mph - N/A   Clear
5:53 PM 77.0 °F - 64.0 °F 64% 30.05 in 10.0 mi NE 9.2 mph - N/A   Partly Cloudy
6:53 PM 75.0 °F - 64.9 °F 71% 30.06 in 10.0 mi NE 8.1 mph - N/A   Partly Cloudy
7:53 PM 75.0 °F - 64.9 °F 71% 30.07 in 10.0 mi NNE 8.1 mph 16.1 mph N/A   Clear
8:53 PM 75.0 °F - 68.0 °F 79% 30.09 in 10.0 mi NNE 8.1 mph 17.3 mph N/A   Partly Cloudy
9:53 PM 75.9 °F - 68.0 °F 76% 30.10 in 10.0 mi North 13.8 mph 19.6 mph N/A   Overcast
10:53 PM 75.0 °F - 66.9 °F 76% 30.09 in 10.0 mi NNE 11.5 mph 19.6 mph N/A   Overcast
11:53 PM 73.9 °F - 69.1 °F 85% 30.09 in 10.0 mi NNE 8.1 mph - N/A   Scattered Clouds